Location: Peebles
(55.6412°N, 3.1714°W)
Time: 15:08:42
(UTC+01:00)

FENGYUN 1C DEB - Visible Passes

Search period start: 06 October 2022 00:00
Search period end: 16 October 2022 00:00
Orbit: 782 x 974 km, 98.7° (Epoch: 05 October)

Date Brightness Start Highest point End Pass type
(mag) Time Alt. Az. Time Alt. Az. Time Alt. Az.
06 Oct ? 00:28:33 27° N 00:28:33 27° N 00:31:04 10° N visible
06 Oct ? 02:11:08 16° NW 02:11:08 16° NW 02:12:22 10° NNW visible
06 Oct ? 22:42:14 14° NE 22:42:14 14° NE 22:44:27 10° NNE visible
07 Oct ? 00:24:50 26° N 00:24:50 26° N 00:27:13 10° N visible
07 Oct ? 02:07:25 16° NNW 02:07:25 16° NNW 02:08:34 10° NNW visible
07 Oct ? 22:38:30 13° NE 22:38:30 13° NE 22:40:28 10° NNE visible
08 Oct ? 00:21:06 24° N 00:21:06 24° N 00:23:21 10° N visible
08 Oct ? 02:03:40 16° NNW 02:03:40 16° NNW 02:04:44 10° NNW visible
08 Oct ? 22:34:45 12° NE 22:34:45 12° NE 22:36:27 10° NNE visible
09 Oct ? 00:17:20 23° N 00:17:20 23° N 00:19:28 10° N visible
09 Oct ? 01:59:55 15° NNW 01:59:55 15° NNW 02:00:54 10° NNW visible
09 Oct ? 22:30:58 12° NE 22:30:58 12° NE 22:32:23 10° NNE visible
10 Oct ? 00:13:34 22° N 00:13:34 22° N 00:15:33 10° N visible
10 Oct ? 01:56:09 15° NNW 01:56:09 15° NNW 01:57:03 10° NNW visible
10 Oct ? 22:27:11 11° NNE 22:27:11 11° NNE 22:28:15 10° NNE visible
11 Oct ? 00:09:46 21° N 00:09:46 21° N 00:11:38 10° N visible
11 Oct ? 01:52:21 14° NNW 01:52:21 14° NNW 01:53:10 10° NNW visible
11 Oct ? 22:23:23 10° NNE 22:23:23 10° NNE 22:24:01 10° NNE visible
12 Oct ? 00:05:57 20° N 00:05:57 20° N 00:07:41 10° N visible
12 Oct ? 01:48:33 14° NNW 01:48:33 14° NNW 01:49:16 10° NNW visible
13 Oct ? 00:02:08 19° N 00:02:08 19° N 00:03:44 10° N visible
13 Oct ? 01:44:43 14° NNW 01:44:43 14° NNW 01:45:22 10° NNW visible
13 Oct ? 23:58:17 18° N 23:58:17 18° N 23:59:46 10° N visible
14 Oct ? 01:40:52 13° NNW 01:40:52 13° NNW 01:41:27 10° NNW visible
14 Oct ? 23:54:27 17° N 23:54:27 17° N 23:55:46 10° N visible
15 Oct ? 01:37:01 13° NNW 01:37:01 13° NNW 01:37:30 10° NNW visible
15 Oct ? 23:50:33 16° N 23:50:33 16° N 23:51:45 10° N visible
